NOAA NWS Hourly Roundups by Site

Regional Weather Roundup for State College, PA

To Select Another Site Choose from List

Select Site:  

789
ASUS41 KCTP 191810
RWRCTP

REGIONAL WEATHER ROUNDUP
NATIONAL WEATHER SERVICE STATE COLLEGE PA
200 PM EDT FRI JUL 19 2019

Note: "fair" indicates few or no clouds below 12,000 feet with no
significant weather and/or obstructions to visibility.

* = STATION THAT DOES NOT REPORT PRECIPITATION /E.G. RAIN...SNOW...ETC/
    THUNDER OR FOG.

PAZ002>004-007>009-013>016-020>023-029>032-191900-
WESTERN PENNSYLVANIA

CITY           SKY/WX    TMP DP  RH WIND       PRES   REMARKS
ERIE           FAIR      90  77  65 W7        29.88F HX 103
MEADVILLE      FAIR      85  75  72 SW7       29.96S
FRANKLIN*      PTSUNNY   84  75  74 SW10      29.98S
NEW CASTLE     CLOUDY    86  77  74 SW10      29.97R HX  97
BEAVER COUNTY  PTSUNNY   84  75  74 SW13      29.99R
BUTLER*        PTSUNNY   86  76  71 SW12      29.99S HX  96
PITTSBURGH INT FAIR      82  74  76 S8        29.98S
PITTSBURGH     CLOUDY    83  73  72 W13       30.00R
INDIANA*       PTSUNNY   84  75  74 W8G16     30.03F
LATROBE        PTSUNNY   86  75  70 W9        29.99S HX  95
WASHINGTON CO* CLOUDY    83  75  77 SW12G17   30.03S
$$

PAZ004>006-010>012-017>019-024>028-033>037-041-042-045-046-049>053-191900-
CENTRAL PENNSYLVANIA

CITY           SKY/WX    TMP DP  RH WIND       PRES   REMARKS
BRADFORD       PTSUNNY   86  73  65 VRB3      29.98S
DUBOIS         PTSUNNY   84  74  71 SW9       29.99S
CLEARFIELD     FAIR      84  73  69 S13       29.99S
JOHNSTOWN      FAIR      83  68  60 W12G20    30.05S
ALTOONA        FAIR      91  68  46 W9        29.99S HX  95
STATE COLLEGE  PTSUNNY   88  75  66 W9        29.96F HX  97
WILLIAMSPORT   FAIR      90  74  59 W13       29.89F HX  99
SELINSGROVE    FAIR      92  77  61 CALM      29.90F HX 105
FT INDIANTOWN  NOT AVBL
CAPITAL CITY   FAIR      96  74  48 W13G18    29.91F HX 107
HARRISBURG     FAIR      92  74  55 W9        29.90F HX 101
YORK           FAIR      91  75  59 W6        29.93F HX 101
$$

PAZ038>040-043-044-047-048-054-055-060>062-067>071-191900-
EASTERN PENNSYLVANIA

CITY           SKY/WX    TMP DP  RH WIND       PRES   REMARKS
SCRANTON       FAIR      91  75  59 SW13G18   29.90F HX 101
MOUNT POCONO   FAIR      86  72  62 W13G20    29.96F
ALLENTOWN      FAIR      92  77  61 SW13      29.89F HX 105
QUAKERTOWN*    PTCLDY    91  77  62 SW9       29.91F HX 105
READING        FAIR      91  79  67 W9        29.89F HX 107
LANCASTER      FAIR      92  77  61 W13       29.91F HX 105
COATESVILLE    FAIR      90  77  66 VRB6      29.95F HX 102
POTTSTOWN      FAIR      89  74  60 S7        29.92F HX  98
BLUE BELL      FAIR      92  77  61 W5        29.91F HX 105
DOYLESTOWN     FAIR      93  75  55 SW8       29.90F HX 104
WILLOW GROVE   NOT AVBL
NORTH PHILA    FAIR      94  74  52 W7        29.91F HX 104
PHILADELPHIA   FAIR      93  73  52 SW13      29.90F HX 102
$$



 

View Past Reports for State College, PA.

Products Courtesy of NOAA-NWS
NWS Information Parsing Script by Ken True at Saratoga Weather - Script by SE Lincoln Weather.